Find Starlink 4359

NORAD ID: 53226 Int'l Des: 2022-084 Owner: SPXS Country: US Constellation: starlink operational
LEOCIRCULARRETROGRADESSO

リアルタイム位置

3D地球を読み込み中...

Starlink 4359について

説明を読み込み中...

次回通過

Passes for default location (London). Set your location on the main map for personalized predictions.

高度履歴

Loading altitude history...

軌道要素

1 53226U 22084AP 26104.60405471 .00001116 00000-0 81553-4 0 9999
2 53226 97.6019 165.4892 0001797 89.7820 270.3612 15.05658481204713
Epoch: Apr 14, 2026 • Age: 16 hours

現在のステータス

高度 570.8 km
速度 7.57 km/s
衛星直下点 -52.30°S, 120.59°W
打ち上げ日 Jul 22, 2022
運用期間 3.7 years
タイプ internet

技術仕様

分類 Payload
質量 297.00 kg
乾燥質量 275.00 kg
総質量 297.00 kg
長さ 0.20 m
直径 2.80 m
スパン 9.00 m
形状 Box + pan
製造者 SPXS
バスタイプ Starlink
フェーズステータス In Orbit
所有者/国 SPXS/US

Most Searched